Weather Roundup
Issued by NWS Springfield, MO

Home | Current Version | Previous Version | Text Only | Print | Product List | Glossary On
Versions: 1 2 3 4 5 6 7 8 9 10 11 12 13 14 15 16 17 18 19 20 21 22 23 24 25 26 27 28 29 30 31 32 33 34 35 36 37 38 39 40 41 42 43 44 45 46 47 48 49 50
000
NZUS99 KSGF 220857
HRRSGF

HOURLY WEATHER
NATIONAL WEATHER SERVICE SPRINGFIELD MO
400 AM CDT SUN OCT 22 2017

......SGF CWA......

CITY           SKY/WX    TMP DP  RH WIND       PRES   REMARKS
SPRINGFIELD    RAIN      59  59 100 W3        29.96F FOG
JOPLIN         HVY RAIN  54  54 100 MISG      29.93F FOG
WEST PLAINS    HVY RAIN  58  55  90 W12G23    29.94R FOG
ROLLA          RAIN      59  57  93 NW24G32   29.87R
OSAGE BEACH    RAIN      59  57  94 CALM      29.93S

......SURROUNDING SGF CWA......

CITY           SKY/WX    TMP DP  RH WIND       PRES   REMARKS
CHANUTE        CLOUDY    52  50  93 NW8       30.02R
PARSONS        CLOUDY    53  50  89 NW8       30.04R
COFFEYVILLE    CLOUDY    53  51  93 NW12      30.03R
EMPORIA        CLOUDY    49  46  90 W6        30.04R
HARRISON AR    RAIN      58  58 100 W8        29.98F FOG

......KANSAS AND MISSOURI......

CITY           SKY/WX    TMP DP  RH WIND       PRES   REMARKS
KANSAS CTY INT LGT RAIN  50  46  86 NE12      29.98S
SEDALIA        LGT RAIN  54  54 100 NW12      29.98R
ST JOSEPH      CLOUDY    51  51 100 CALM      30.01R
ST LOUIS       CLOUDY    70  63  78 S16       29.88F
WICHITA        CLEAR     49  43  80 NW3       30.08R
TOPEKA         MOCLDY    51  51 100 CALM      30.01F
OLATHE         LGT RAIN  49  48  97 N13       29.97F

......TENNESSEE......

CITY           SKY/WX    TMP DP  RH WIND       PRES   REMARKS
MEMPHIS        NOT AVBL
NASHVILLE      MOCLDY    63  54  72 SE7       30.14F

......ARKANSAS.......

CITY           SKY/WX    TMP DP  RH WIND       PRES   REMARKS
FAYETTEVILLE   TSTM      57  57 100 E3        29.97F FOG
FT SMITH       RAIN      60  59  96 CALM      29.98F FOG
LITTLE ROCK    LGT RAIN  72  71  97 S12       29.95R

......OKLAHOMA.......

CITY           SKY/WX    TMP DP  RH WIND       PRES   REMARKS
TULSA          CLOUDY    55  54  96 N12       30.02R
PONCA CITY     MOCLDY    51  47  86 CALM      30.06R
MCALESTER      LGT RAIN  61  58  90 VRB5      30.04R
OKLAHOMA CITY  CLOUDY    53  49  86 N10       30.07R

......IOWA............

CITY           SKY/WX    TMP DP  RH WIND       PRES   REMARKS
DES MOINES     NOT AVBL
QUAD CITIES    LGT RAIN  63  59  87 NW8       29.86F

......ILLINOIS........

CITY           SKY/WX    TMP DP  RH WIND       PRES   REMARKS
QUINCY         NOT AVBL
CHICAGO        CLOUDY    67  56  67 S17       29.94F




USA.gov is the U.S. government's official web portal to all federal, state and local government web resources and services.